TimeCST,TemperatureF,Dew PointF,Humidity,Sea Level PressureIn,VisibilityMPH,Wind Direction,Wind SpeedMPH,Gust SpeedMPH,PrecipitationIn,Events,Conditions,WindDirDegrees,DateUTC
12:15 AM,32.0,24.8,75,29.72,10.0,SE,13.8,23.0,N/A,,Clear,130,2013-03-04 06:15:00
12:35 AM,32.0,24.8,75,29.72,10.0,SE,13.8,20.7,N/A,,Clear,130,2013-03-04 06:35:00
12:55 AM,32.0,24.8,75,29.70,10.0,SE,16.1,-,N/A,,Clear,130,2013-03-04 06:55:00
1:15 AM,32.0,23.0,69,29.69,10.0,SE,17.3,23.0,N/A,,Clear,130,2013-03-04 07:15:00
1:35 AM,32.0,23.0,69,29.68,10.0,SE,17.3,-,N/A,,Clear,130,2013-03-04 07:35:00
1:55 AM,32.0,23.0,69,29.69,10.0,SE,16.1,23.0,N/A,,Clear,130,2013-03-04 07:55:00
2:15 AM,32.0,23.0,69,29.68,10.0,SE,16.1,-,N/A,,Clear,130,2013-03-04 08:15:00
2:35 AM,32.0,23.0,69,29.69,10.0,SE,15.0,-,N/A,,Clear,130,2013-03-04 08:35:00
2:55 AM,32.0,23.0,69,29.67,10.0,SE,15.0,-,N/A,,Clear,140,2013-03-04 08:55:00
3:15 AM,30.2,23.0,75,29.68,10.0,SE,10.4,16.1,N/A,,Clear,140,2013-03-04 09:15:00
3:35 AM,30.2,23.0,75,29.67,10.0,ESE,10.4,-,N/A,,Clear,120,2013-03-04 09:35:00
3:55 AM,30.2,23.0,75,29.67,10.0,SE,11.5,-,N/A,,Clear,130,2013-03-04 09:55:00
4:15 AM,30.2,23.0,75,29.67,10.0,SE,10.4,-,N/A,,Clear,130,2013-03-04 10:15:00
4:35 AM,30.2,23.0,75,29.68,10.0,ESE,11.5,-,N/A,,Clear,110,2013-03-04 10:35:00
4:55 AM,30.2,23.0,75,29.67,10.0,SE,11.5,-,N/A,,Clear,130,2013-03-04 10:55:00
5:15 AM,30.2,23.0,75,29.68,10.0,SE,12.7,-,N/A,,Clear,130,2013-03-04 11:15:00
5:35 AM,30.2,23.0,75,29.68,10.0,ESE,11.5,17.3,N/A,,Clear,120,2013-03-04 11:35:00
5:55 AM,30.2,23.0,75,29.68,10.0,ESE,11.5,-,N/A,,Clear,120,2013-03-04 11:55:00
6:15 AM,30.2,23.0,75,29.68,10.0,ESE,11.5,-,N/A,,Clear,120,2013-03-04 12:15:00
6:35 AM,30.2,23.0,75,29.68,10.0,ESE,10.4,-,N/A,,Clear,120,2013-03-04 12:35:00
6:55 AM,30.2,24.8,80,29.68,10.0,ESE,11.5,-,N/A,,Clear,120,2013-03-04 12:55:00
7:15 AM,30.2,24.8,80,29.69,10.0,ESE,8.1,-,N/A,,Clear,120,2013-03-04 13:15:00
7:35 AM,30.2,24.8,80,29.69,10.0,ESE,9.2,-,N/A,,Clear,120,2013-03-04 13:35:00
7:55 AM,30.2,24.8,80,29.69,10.0,ESE,9.2,-,N/A,,Clear,120,2013-03-04 13:55:00
8:15 AM,32.0,24.8,75,29.70,10.0,ESE,9.2,-,N/A,,Clear,110,2013-03-04 14:15:00
8:35 AM,32.0,24.8,75,29.70,10.0,ESE,9.2,-,N/A,,Clear,120,2013-03-04 14:35:00
8:55 AM,32.0,26.6,80,29.71,10.0,ESE,10.4,-,N/A,,Clear,120,2013-03-04 14:55:00
9:15 AM,33.8,26.6,75,29.72,10.0,SE,10.4,-,N/A,,Clear,130,2013-03-04 15:15:00
9:35 AM,33.8,26.6,75,29.72,10.0,SE,11.5,-,N/A,,Clear,130,2013-03-04 15:35:00
9:55 AM,35.6,26.6,70,29.72,10.0,SE,10.4,-,N/A,,Clear,140,2013-03-04 15:55:00
10:15 AM,35.6,26.6,70,29.73,10.0,SE,8.1,-,N/A,,Clear,130,2013-03-04 16:15:00
10:35 AM,35.6,28.4,75,29.73,10.0,SE,9.2,-,N/A,,Clear,130,2013-03-04 16:35:00
10:55 AM,37.4,28.4,70,29.73,10.0,SSE,5.8,-,N/A,,Clear,150,2013-03-04 16:55:00
11:15 AM,37.4,28.4,70,29.75,10.0,ESE,5.8,-,N/A,,Clear,110,2013-03-04 17:15:00
11:35 AM,37.4,28.4,70,29.75,10.0,Variable,4.6,-,N/A,,Clear,0,2013-03-04 17:35:00
11:55 AM,37.4,28.4,70,29.75,10.0,Calm,Calm,-,N/A,,Clear,0,2013-03-04 17:55:00
12:15 PM,39.2,28.4,65,29.75,10.0,Calm,Calm,-,N/A,,Clear,0,2013-03-04 18:15:00
12:55 PM,39.2,28.4,65,29.75,10.0,NE,3.5,-,N/A,,Scattered Clouds,40,2013-03-04 18:55:00
1:15 PM,39.2,30.2,70,29.74,10.0,NNE,5.8,-,N/A,,Mostly Cloudy,30,2013-03-04 19:15:00
1:35 PM,39.2,30.2,70,29.75,10.0,North,6.9,-,N/A,,Overcast,350,2013-03-04 19:35:00
1:55 PM,39.2,30.2,70,29.74,10.0,NNW,11.5,-,N/A,,Overcast,330,2013-03-04 19:55:00
2:15 PM,39.2,28.4,65,29.75,10.0,NW,11.5,18.4,N/A,,Overcast,320,2013-03-04 20:15:00
2:35 PM,39.2,30.2,70,29.75,10.0,NNW,13.8,-,N/A,,Overcast,340,2013-03-04 20:35:00
2:55 PM,39.2,30.2,70,29.76,10.0,NNW,12.7,-,N/A,,Overcast,340,2013-03-04 20:55:00
3:15 PM,39.2,30.2,70,29.76,10.0,NW,12.7,18.4,N/A,,Overcast,320,2013-03-04 21:15:00
3:35 PM,37.4,30.2,75,29.76,10.0,NNW,15.0,-,N/A,,Overcast,330,2013-03-04 21:35:00
3:55 PM,37.4,30.2,75,29.76,10.0,North,15.0,20.7,N/A,,Overcast,350,2013-03-04 21:55:00
4:15 PM,37.4,30.2,75,29.76,10.0,North,12.7,19.6,N/A,,Overcast,360,2013-03-04 22:15:00
4:35 PM,37.4,30.2,75,29.77,10.0,North,11.5,18.4,N/A,,Overcast,350,2013-03-04 22:35:00
4:55 PM,37.4,30.2,75,29.79,10.0,North,12.7,-,N/A,,Overcast,350,2013-03-04 22:55:00
5:15 PM,37.4,30.2,75,29.82,10.0,North,11.5,18.4,N/A,,Overcast,350,2013-03-04 23:15:00
5:35 PM,37.4,30.2,75,29.84,9.0,NNW,9.2,-,N/A,,Overcast,340,2013-03-04 23:35:00
5:55 PM,37.4,30.2,75,29.87,9.0,NNW,9.2,-,N/A,,Overcast,330,2013-03-04 23:55:00
6:15 PM,37.4,30.2,75,29.88,9.0,NNW,8.1,13.8,N/A,,Overcast,330,2013-03-05 00:15:00
6:35 PM,35.6,30.2,81,29.89,10.0,NNW,12.7,-,N/A,,Overcast,330,2013-03-05 00:35:00
6:55 PM,35.6,30.2,81,29.90,10.0,North,12.7,-,N/A,,Overcast,350,2013-03-05 00:55:00
7:15 PM,35.6,30.2,81,29.93,10.0,NNW,15.0,20.7,N/A,,Overcast,340,2013-03-05 01:15:00
7:35 PM,35.6,30.2,81,29.96,10.0,NW,10.4,18.4,N/A,,Overcast,320,2013-03-05 01:35:00
7:55 PM,33.8,30.2,87,29.95,10.0,NNW,13.8,-,N/A,,Overcast,330,2013-03-05 01:55:00
8:35 PM,33.8,30.2,87,29.95,10.0,North,9.2,18.4,N/A,,Overcast,350,2013-03-05 02:35:00
8:55 PM,33.8,30.2,87,29.95,10.0,North,9.2,-,N/A,,Overcast,360,2013-03-05 02:55:00
9:15 PM,33.8,30.2,87,29.96,10.0,NNW,10.4,-,N/A,,Overcast,340,2013-03-05 03:15:00
9:35 PM,33.8,30.2,87,29.97,10.0,NNW,9.2,-,N/A,,Overcast,340,2013-03-05 03:35:00
9:55 PM,33.8,30.2,87,29.98,10.0,NW,8.1,-,N/A,,Overcast,320,2013-03-05 03:55:00
10:15 PM,33.8,30.2,87,29.98,10.0,NNW,10.4,-,N/A,,Overcast,330,2013-03-05 04:15:00
10:35 PM,33.8,30.2,87,29.99,10.0,NW,6.9,-,N/A,,Overcast,320,2013-03-05 04:35:00
10:55 PM,33.8,30.2,87,29.98,10.0,NNW,10.4,-,N/A,,Mostly Cloudy,330,2013-03-05 04:55:00
11:15 PM,32.0,30.2,93,30.00,6.0,NNW,12.7,19.6,N/A,Rain,Light Rain,330,2013-03-05 05:15:00
11:35 PM,32.0,28.4,87,30.00,10.0,NNW,12.7,-,N/A,,Overcast,330,2013-03-05 05:35:00
11:55 PM,32.0,30.2,93,30.00,10.0,NW,11.5,-,N/A,,Overcast,320,2013-03-05 05:55:00